This is the latest recevied weather packets stored in our database for station/object KM8V-8. If no packets are shown the sender has not sent any weather packets the latest 10 day(s).
| Time | Temp. | Humidity | Pressure | Rain* | Wind** | Luminosity | Snow |
|---|---|---|---|---|---|---|---|
| 1778256324 | 14.44° C | 70% | 1011.4 hPa | 0 mm | - | 508 W/m² | - |
| 1778256024 | 15° C | 69% | 1011.4 hPa | 0 mm | - | 401 W/m² | - |
| 1778255724 | 15° C | 68% | 1011.4 hPa | 0 mm | - | 440 W/m² | - |
| 1778255420 | 15° C | 67% | 1011.4 hPa | 0 mm | - | 683 W/m² | - |
| 1778255124 | 15° C | 68% | 1011.4 hPa | 0 mm | - | 903 W/m² | - |
| 1778254824 | 14.44° C | 70% | 1011.4 hPa | 0 mm | - | 634 W/m² | - |
| 1778254524 | 14.44° C | 70% | 1011.4 hPa | 0 mm | - | 382 W/m² | - |
| 1778254224 | 14.44° C | 70% | 1011.5 hPa | 0 mm | - | 691 W/m² | - |
| 1778253924 | 13.89° C | 69% | 1011.5 hPa | 0 mm | - | 654 W/m² | - |
| 1778253624 | 13.89° C | 69% | 1011.6 hPa | 0 mm | - | 703 W/m² | - |
| 1778253324 | 13.89° C | 73% | 1011.6 hPa | 0 mm | - | 764 W/m² | - |
| 1778253020 | 13.33° C | 72% | 1011.7 hPa | 0 mm | - | 753 W/m² | - |
| 1778252725 | 13.33° C | 74% | 1011.7 hPa | 0 mm | - | 716 W/m² | - |
| 1778252425 | 12.78° C | 77% | 1011.7 hPa | 0 mm | - | 716 W/m² | - |
| 1778252125 | 12.78° C | 77% | 1011.8 hPa | 0 mm | - | 713 W/m² | - |
| 1778251815 | 12.78° C | 74% | 1011.8 hPa | 0 mm | - | 737 W/m² | - |
| 1778251521 | 12.78° C | 76% | 1011.8 hPa | 0 mm | - | 591 W/m² | - |
| 1778251225 | 12.78° C | 78% | 1011.8 hPa | 0 mm | - | 648 W/m² | - |
| 1778250921 | 12.22° C | 78% | 1011.9 hPa | 0 mm | - | 659 W/m² | - |
| 1778250621 | 12.22° C | 78% | 1011.9 hPa | 0 mm | - | 645 W/m² | - |
| 1778250326 | 12.22° C | 80% | 1011.9 hPa | 0 mm | - | 637 W/m² | - |
| 1778250027 | 11.67° C | 81% | 1012 hPa | 0 mm | - | 610 W/m² | - |
| 1778249726 | 11.67° C | 80% | 1012 hPa | 0 mm | - | 589 W/m² | - |
| 1778249425 | 11.11° C | 82% | 1012 hPa | 0 mm | - | 546 W/m² | - |
| 1778249126 | 11.11° C | 82% | 1012 hPa | 0 mm | - | 470 W/m² | - |
* Rain latest hour (hover to see other rain measurements)
** Current wind speed in m/s (hover to see current wind gust speed)